Tracking 18980 objects as of 20-Feb-2018
HD Live streaming from Space Station
objects crossing your sky now

BREEZE-M DEB (TANK)

Track BREEZE-M DEB (TANK) now!
10-day predictions


NORAD ID: 37828
Int'l Code: 2011-054C
Perigee: 328.4 km
Apogee: 17,244.6 km
Inclination: 49.4 °
Period: 309.5 minutes
Semi major axis: 15157 km
RCS: 6.7148 m2 (large)
Launch date: September 29, 2011
Source: Commonwealth of Independent States (former USSR) (CIS)
Launch site: TYURATAM MISSILE AND SPACE COMPLEX (TTMTR)

Note: This is SATELLITE DEBRIS
aabbcc
Your satellite tracking list
Your tracking list is empty




NASA's NSSDC Master Catalog

Two Line Element Set (TLE):
1 37828U 11054C   18049.50089440 +.00000911 +00000-0 +27593-3 0  9991
2 37828 049.4052 211.6874 5580116 217.9943 085.2072 04.65222664104853
Source of the keplerian elements: AFSPC